Presure
156 96 101 91 160 98 96 105 119 130 127 132 177 159 104 161 106 106 114 108 113 113 109 107 112 101 100 114 106 128 110 160 99
92 131 102 111 137 98 117 104 108 122 149 126 137 178 148 90 108 100 103 98 106 111 113 96 103 107 111 107 100 103 106 141 98
159 143 159 118 95 102 96 91 108 104 114 128 125 149 152 90 110 104 97 102 107 108 106 108 113 104 107 97 86 88 101 88 161
136 147 138 168 119 90 97 94 91 112 116 119 141 136 141 161 102 104 102 103 91 109 106 101 106 102 91 86 99 88 85 87 88
105 118 167 148 140 150 149 95 109 99 105 110 168 124 135 177 113 139 103 101 92 95 97 100 96 84 83 90 101 105 107 110 108
165 158 162 124 154 111 117 109 105 161 104 115 116 130 128 170 190 139 103 101 93 92 95 91 87 84 86 87 90 98 77 99 95
151 182 138 159 166 127 105 159 139 111 93 113 131 122 126 149 136 151 111 102 90 94 95 88 86 85 87 93 91 95 90 94 90
93 171 102 153 169 135 171 165 181 144 110 140 111 116 163 127 174 126 158 98 98 90 90 94 92 85 84 90 93 92 93 98 89
170 101 163 103 166 121 146 126 161 116 125 120 96 118 162 123 146 159 162 143 102 90 90 90 95 89 93 89 84 92 87 92 87
100 92 139 171 102 147 106 111 170 175 124 139 118 102 131 161 124 172 145 171 105 99 91 92 90 91 89 91 87 84 87 82 91
185 96 133 158 179 101 171 105 114 164 180 117 127 123 124 152 170 128 158 159 166 149 99 91 88 94 95 90 87 85 90 86 92
85 122 90 141 138 179 104 155 197 175 111 196 153 183 94 107 118 123 129 176 181 131 143 101 95 90 95 96 93 88 87 90 91
191 117 95 162 118 121 144 183 157 178 107 199 183 204 143 90 103 119 123 128 142 156 149 110 102 99 96 95 93 90 94 90 91
140 202 205 160 126 88 143 154 101 136 197 160 199 202 163 178 91 100 114 118 127 141 132 153 124 111 100 96 97 97 93 93 95
133 127 205 150 87 123 89 106 221 103 170 131 129 199 211 223 180 100 93 111 120 125 150 134 109 158 162 100 93 94 97 95 95
158 160 180 127 140 136 137 105 227 178 144 97 102 149 129 171 163 204 108 91 113 118 123 128 142 123 102 144 147 101 100 100 101
157 210 122 123 143 205 142 98 151 114 214 167 168 124 101 109 181 117 163 123 97 109 119 120 121 138 128 135 139 172 154 108 113
169 187 147 207 141 182 140 133 136 141 143 132 158 185 101 128 116 150 213 142 123 114 92 121 131 120 134 128 133 132 152 177 164
156 160 192 237 148 126 240 245 132 242 164 230 197 222 196 104 97 175 161 124 174 120 123 90 99 115 117 131 122 133 128 179 151
237 245 247 144 139 151 243 131 144 211 226 126 90 195 138 140 153 152 152 206 111 156 89 124 89 110 90 111 130 130 137 136 179
Wind_Speed
47 27 27 20 43 19 15 18 19 18 16 16 34 20 19 12 17 18 19 17 18 18 19 18 16 15 14 13 16 13 15 17 12
27 35 30 28 38 23 26 22 19 20 31 16 18 30 17 15 22 19 19 15 17 18 19 16 16 16 13 14 13 13 13 12 12
53 41 40 34 27 29 23 19 22 19 20 21 19 24 19 17 24 22 17 19 18 19 17 18 18 16 15 12 11 10 11 12 17
50 54 42 48 37 24 27 23 20 25 23 23 22 23 23 26 23 24 23 22 17 19 20 15 17 15 13 11 10 8 9 8 8
40 43 57 46 47 50 43 27 31 25 26 28 40 26 26 32 29 22 28 24 19 18 16 16 15 12 11 10 11 10 9 7 6
60 58 61 46 59 41 39 38 35 45 28 31 29 30 28 37 40 27 29 28 23 21 20 17 16 13 10 9 7 10 11 7 6
60 71 51 62 62 49 42 53 44 39 28 35 34 33 31 33 32 29 37 30 24 24 22 20 17 15 12 9 8 7 6 4 2
43 77 45 61 65 54 70 64 73 48 40 41 37 36 51 34 38 34 30 31 31 25 22 22 21 16 15 12 10 9 6 6 4
83 46 70 50 76 53 64 51 66 49 48 44 34 40 55 38 39 37 38 35 36 28 26 23 24 20 18 16 14 11 10 8 8
51 46 71 89 51 74 53 54 73 77 52 55 44 38 45 56 43 48 40 38 41 37 29 28 24 23 22 20 16 15 13 13 9
113 49 57 88 100 53 96 53 56 80 82 52 54 47 47 54 56 45 47 45 46 42 40 29 25 27 27 24 21 18 18 14 15
50 61 49 65 64 93 58 68 107 74 54 88 65 77 38 43 48 48 46 58 60 45 41 40 35 29 30 31 27 22 20 20 17
115 63 55 87 62 62 70 95 70 82 56 94 82 91 62 38 45 51 50 48 48 53 44 45 43 40 35 32 30 25 28 22 21
75 115 115 83 68 53 71 75 58 63 101 83 89 94 74 79 42 47 51 50 50 50 46 60 47 43 42 36 37 36 30 29 29
76 71 95 78 56 70 58 63 99 60 76 71 62 93 98 93 78 49 44 53 54 51 55 47 50 47 42 43 33 34 36 32 31
89 88 91 71 76 75 75 63 95 92 69 60 61 68 65 75 72 86 56 44 54 52 53 50 49 52 47 44 42 46 40 38 41
90 100 66 67 79 97 78 60 79 69 91 78 79 66 57 63 71 62 71 61 48 52 55 55 51 50 50 43 44 40 38 36 35
85 91 78 102 81 89 79 76 77 79 79 64 80 82 64 68 66 76 89 71 63 56 43 56 58 53 50 47 45 44 45 38 41
85 89 99 105 79 72 101 98 77 98 86 95 90 100 94 70 64 81 78 68 74 61 61 44 46 54 53 50 50 47 45 39 41
108 108 107 91 87 88 105 78 83 99 99 71 64 100 74 73 80 84 83 97 62 71 46 60 43 57 43 54 52 49 49 46 43
Wind_Direction
253 222 223 211 264 223 218 221 227 223 234 234 298 284 196 289 189 180 173 161 150 148 141 137 130 128 131 109 116 70 108 43 103
223 249 224 234 260 215 227 229 218 217 275 223 233 308 262 179 195 187 180 184 167 155 150 154 142 131 125 123 119 113 108 40 102
252 248 258 242 226 229 221 210 224 219 211 230 222 265 266 188 200 194 192 182 176 167 164 155 145 143 137 135 128 118 111 105 40
248 255 245 260 223 221 225 220 219 222 220 220 248 230 244 273 205 200 200 190 186 178 172 166 159 156 153 142 136 134 125 110 100
226 233 259 252 250 256 263 224 231 222 222 218 273 222 231 283 215 244 201 201 198 193 195 183 176 170 160 161 143 132 120 97 87
251 253 249 238 252 232 240 233 235 267 223 223 227 236 228 277 300 230 208 204 202 198 196 195 191 181 180 168 173 151 170 130 118
250 274 244 250 264 239 232 259 250 233 224 226 236 229 231 249 235 245 216 207 209 205 203 201 203 193 194 205 194 193 188 189 160
232 271 229 260 260 241 270 255 274 248 231 243 226 223 264 231 269 230 247 215 210 216 209 211 212 212 201 216 222 213 221 214 204
270 234 263 231 265 239 255 229 255 230 239 236 232 230 257 231 240 248 259 238 219 214 218 221 219 214 228 217 205 230 214 237 216
230 230 260 268 233 260 234 232 257 262 234 243 233 231 237 257 234 265 241 260 222 221 222 223 226 222 221 229 222 219 229 219 253
268 228 246 260 266 234 265 237 237 260 263 234 234 239 233 247 258 234 254 257 264 252 222 224 223 233 229 229 230 234 241 238 260
221 237 225 246 246 263 235 252 269 257 236 266 241 258 228 228 229 235 234 269 273 245 240 226 230 231 235 237 237 241 244 252 261
263 236 229 256 241 240 248 264 253 262 239 265 257 263 243 232 231 232 234 235 241 259 242 234 233 234 237 237 242 246 249 253 257
244 265 265 253 242 228 246 251 237 241 265 261 264 261 247 252 233 237 235 235 238 240 236 261 239 239 240 242 244 246 249 255 259
247 248 256 245 232 241 229 235 253 238 250 247 242 264 268 261 255 236 238 237 236 238 248 239 237 249 247 242 243 249 251 253 258
251 251 255 250 244 244 247 236 253 252 247 236 238 240 245 232 239 257 234 236 238 235 241 240 240 240 242 250 252 250 252 255 260
252 259 244 247 244 257 248 240 251 240 250 247 247 240 236 240 236 240 246 236 235 237 239 240 241 244 244 246 252 248 250 253 257
253 256 251 256 248 253 245 246 246 247 249 244 248 244 235 239 242 243 253 242 238 238 236 241 243 244 246 247 249 252 253 252 258
253 255 256 257 249 243 259 259 244 254 248 250 248 247 247 234 235 235 234 241 242 239 241 236 240 245 245 248 248 251 251 248 254
261 260 259 253 249 252 260 240 243 251 252 239 236 248 244 239 241 242 246 251 237 238 235 242 238 246 241 247 249 250 251 250 250